Regional Weather Roundup
Issued by NWS

Home | Current Version | Previous Version | Text Only | Print | Product List | Glossary On
Versions: 1 2 3 4 5 6 7 8 9 10 11 12 13 14 15 16 17 18 19 20 21 22 23 24 25 26 27 28 29 30 31 32 33 34 35 36 37 38 39 40 41 42 43
000
ASPQ40 PGUM 220312
RWRPQ
WEATHER ROUNDUP FOR THE MARIANAS AND MICRONESIA
NATIONAL WEATHER SERVICE TIYAN GU
100 PM CHST WED OCT 22 2014

GUZ001>004-220400-
MARIANA ISLANDS-

CITY           SKY/WX    TMP DP  RH WIND       PRES   REMARKS
GUAM AIRPORT   MOSUNNY   88  73  62 SE6       29.80S HX  96
ANDERSEN AFB   MOSUNNY   84  75  74 SE6       29.80S HX  92
ROTA AIRPORT   MOSUNNY   84  75  74 S8        29.79F HX  92
TINIAN AP      MOSUNNY   86  77  74 NE10      29.79R HX  97
SAIPAN AP      MOSUNNY   88  75  66 E9        29.81R HX  97

$$

PMZ161-220400-
REPUBLIC OF PALAU-

CITY           SKY/WX    TMP DP  RH WIND       PRES   REMARKS
KOROR AP       PTSUNNY   86  77  74 NW10G17   29.82F HX  97
KOROR WSO      PTSUNNY   88  79  74 NW7       29.81F HX 102

$$

PMZ171>174-220400-
FEDERATED STATES OF MICRONESIA-

CITY           SKY/WX    TMP DP  RH WIND       PRES   REMARKS
YAP AIRPORT    PTSUNNY   84  79  84 VRB5      29.79F HX  96
CHUUK AP       PTSUNNY   90  79  70 VRB3      29.77F HX 105
POHNPEI AP     LGT RAIN  79  75  89 W3        29.78F
POHNPEI WSO    LGT RAIN  77  77 100 S5        29.81F
KOSRAE AP      NOT AVBL

$$

PMZ181-220400-
REPUBLIC OF THE MARSHALL ISLANDS-

CITY           SKY/WX    TMP DP  RH WIND       PRES   REMARKS
KWAJALEIN AP   MOSUNNY   86  75  70 SE10      29.75F HX  95
MAJURO AP      NOT AVBL
MAJURO WSO     MOSUNNY   88  79  74 NE9       29.74F HX 102

$$




USA.gov is the U.S. government's official web portal to all federal, state and local government web resources and services.